Regional Weather Roundup
Issued by NWS

Home | Current Version | Previous Version | Graphics & Text | Print | Product List | Glossary On
Versions: 1 2 3 4 5 6 7 8 9 10 11 12 13 14 15 16 17 18 19 20 21 22 23 24 25 26 27 28 29 30 31 32 33 34 35 36 37 38 39 40 41 42 43 44 45 46 47 48 49 50
000
ASUS43 KOAX 241902
RWRNE

WEATHER ROUNDUP FOR NEBRASKA
NATIONAL WEATHER SERVICE OMAHA NE
100 PM CST MON NOV 24 2014

NOTES: SATELLITE DATA IS BEING USED TO AUGMENT CLOUD COVER ABOVE
       12000 FEET.
       "FAIR" INDICATES FEW OR NO CLOUDS BELOW 12,000 FEET WITH NO
       SIGNIFICANT WEATHER AND/OR OBSTRUCTIONS TO VISIBILITY.

  * THESE STATIONS DO NOT REPORT WEATHER SUCH AS RAIN...SNOW OR FOG.

NEZ001>004-019>022-054>056-242000-
NEBRASKA PANHANDLE

CITY           SKY/WX    TMP DP  RH WIND       PRES   REMARKS
SCOTTSBLUFF    CLOUDY    39  24  55 NW30G37   29.94R WCI  27
ALLIANCE       LGT SNOW  36  30  79 NW18G30   29.89R WCI  26
CHADRON        CLOUDY    39  27  62 NW29G43   29.90S WCI  27
SIDNEY         PTSUNNY   40  20  44 N22G30    29.92R WCI  30
$$

NEZ057>060-069>072-079>082-242000-
SOUTHWEST NEBRASKA

CITY           SKY/WX    TMP DP  RH WIND       PRES   REMARKS
NORTH PLATTE   SUNNY     43  18  36 NW22G32   29.88R
IMPERIAL       CLOUDY    44  23  43 NW23G32   29.89S
MCCOOK         MOSUNNY   47  16  29 NW20G30   29.89R
$$

NEZ005>010-023>029-035>040-094-242000-
NORTH CENTRAL NEBRASKA

CITY           SKY/WX    TMP DP  RH WIND       PRES   REMARKS
VALENTINE      SUNNY     33  17  51 N21G29    29.88R WCI  21
AINSWORTH      SUNNY     32  16  50 NW23      29.85R WCI  19
BROKEN BOW     SUNNY     39  18  42 NW25G32   29.84R WCI  28
ORD            SUNNY     36   9  32 NW23G31   29.83R WCI  24
$$

NEZ041-046>049-061>064-073>077-083>087-242000-
SOUTH CENTRAL NEBRASKA

CITY           SKY/WX    TMP DP  RH WIND       PRES   REMARKS
AURORA         SUNNY     36  11  35 NW24G33   29.82R WCI  25
HASTINGS       SUNNY     39  12  33 NW23      29.84R WCI  28
KEARNEY *      SUNNY     39  14  35 W21G30    29.86S WCI  29
$$

NEZ011>018-030>034-042>045-242000-
NORTHEAST NEBRASKA

CITY           SKY/WX    TMP DP  RH WIND       PRES   REMARKS
NORFOLK        SUNNY     33  17  51 NW24G37   29.77R WCI  20
ALBION         SUNNY     33   8  34 NW24G35   29.80R WCI  21
BLAIR          CLOUDY    31  19  60 NW22G29   29.74R WCI  18
COLUMBUS *     SUNNY     34  16  47 NW24G36   29.80R WCI  21
TEKAMAH        CLOUDY    31  17  56 NW25G35   29.76R WCI  17
$$

NEZ050>053-065>068-078-088>093-242000-
SOUTHEAST NEBRASKA

CITY           SKY/WX    TMP DP  RH WIND       PRES   REMARKS
LINCOLN        SUNNY     37  18  46 NW24G31   29.80R WCI  26
OMAHA EPPLEY   CLOUDY    31  19  61 NW22G32   29.77R WCI  18
BEATRICE       SUNNY     37  20  49 NW24G32   29.80R WCI  26
FALLS CITY     CLOUDY    35  21  56 NW18G29   29.78R WCI  24
NEBRASKA CITY  CLOUDY    32  17  54 NW20G29   29.77R WCI  20
$$

NEZ044-045-051>053-067-242000-
OMAHA AREA

CITY           SKY/WX    TMP DP  RH WIND       PRES   REMARKS
OMAHA EPPLEY   CLOUDY    31  19  61 NW22G32   29.77R WCI  18
BLAIR          CLOUDY    31  19  60 NW22G29   29.74R WCI  18
OFFUTT AFB     CLOUDY    31  18  58 NW21G28   29.76R WCI  19
WAHOO          FAIR      36  17  47 NW23G33   29.76R WCI  24
$$


USA.gov is the U.S. government's official web portal to all federal, state and local government web resources and services.